| time (UTC) | temp F | wind direction | speed MPH | gust MPH | rain 1hr in | rain 24hr in | rain mn in | humidity % | barometer mb |
| 20260504191559 | 63 | 328 | 5.0 | 14.0 | 0.00 | 0.00 | 0.00 | 64 | 1009.4 |
| 20260504190109 | 66 | 330 | 3.0 | 7.0 | 0.00 | 0.00 | 0.00 | 60 | 1009.5 |
| 20260504184600 | 63 | 271 | 5.0 | 15.0 | 0.00 | 0.00 | 0.00 | 62 | 1009.5 |
| 20260504183102 | 63 | 297 | 6.0 | 13.0 | 0.00 | 0.00 | 0.00 | 63 | 1009.7 |
| 20260504181602 | 64 | 17 | 4.0 | 13.0 | 0.00 | 0.00 | 0.00 | 60 | 1009.7 |
| 20260504180141 | 63 | 329 | 7.0 | 15.0 | 0.00 | 0.00 | 0.00 | 61 | 1010.0 |
| 20260504174558 | 62 | 27 | 6.0 | 14.0 | 0.00 | 0.00 | 0.00 | 63 | 1010.2 |
| 20260504173058 | 63 | 322 | 6.0 | 12.0 | 0.00 | 0.00 | 0.00 | 62 | 1010.2 |
| 20260504171601 | 63 | 295 | 6.0 | 11.0 | 0.00 | 0.00 | 0.00 | 63 | 1010.4 |
| 20260504160105 | 65 | 275 | 2.0 | 9.0 | 0.00 | 0.00 | 0.00 | 54 | 1011.1 |
| 20260504140103 | 62 | 131 | 3.0 | 12.0 | 0.00 | 0.00 | 0.00 | 53 | 1011.6 |
| 20260504120109 | 55 | 106 | 2.0 | 7.0 | 0.00 | 0.00 | 0.00 | 61 | 1012.3 |
| 20260504100116 | 48 | 0 | 0.0 | 1.0 | 0.00 | 0.00 | 0.00 | 66 | 1012.1 |
| 20260504081601 | 49 | 142 | 0.0 | 4.0 | 0.00 | 0.00 | 0.00 | 64 | 1011.4 |
| 20260504060109 | 51 | 136 | 2.0 | 7.0 | 0.00 | 0.00 | 0.00 | 60 | 1010.9 |
| 20260504050113 | 51 | 125 | 1.0 | 4.0 | 0.00 | 0.00 | 0.00 | 62 | 1010.7 |
| 20260504044559 | 51 | 0 | 0.0 | 4.0 | 0.00 | 0.00 | 0.00 | 61 | 1010.6 |
| 20260504043105 | 51 | 150 | 0.0 | 4.0 | 0.00 | 0.00 | 0.00 | 60 | 1010.5 |
| 20260504041559 | 50 | 0 | 0.0 | 4.0 | 0.00 | 0.00 | 0.00 | 60 | 1010.6 |
| 20260504040104 | 49 | 0 | 1.0 | 4.0 | 0.00 | 0.00 | 0.00 | 63 | 1010.5 |
| 20260504034615 | 47 | 0 | 0.0 | 0.0 | 0.00 | 0.00 | 0.00 | 68 | 1010.4 |
| 20260504033104 | 47 | 0 | 0.0 | 0.0 | 0.00 | 0.00 | 0.00 | 66 | 1010.4 |
| 20260504031604 | 47 | 0 | 0.0 | 1.0 | 0.00 | 0.00 | 0.00 | 66 | 1010.3 |
| 20260504030058 | 47 | 0 | 0.0 | 0.0 | 0.00 | 0.00 | 0.00 | 64 | 1010.3 |
| 20260504024600 | 46 | 0 | 0.0 | 0.0 | 0.00 | 0.00 | 0.00 | 62 | 1010.2 |
| 20260504023059 | 45 | 0 | 0.0 | 0.0 | 0.00 | 0.00 | 0.00 | 62 | 1010.3 |
| 20260504021600 | 46 | 0 | 0.0 | 0.0 | 0.00 | 0.00 | 0.00 | 59 | 1010.3 |
| 20260504020109 | 47 | 0 | 0.0 | 0.0 | 0.00 | 0.00 | 0.00 | 55 | 1010.3 |
| 20260504014606 | 49 | 0 | 0.0 | 0.0 | 0.00 | 0.00 | 0.00 | 54 | 1010.2 |
| 20260504013107 | 49 | 0 | 0.0 | 1.0 | 0.00 | 0.00 | 0.00 | 52 | 1010.0 |
| 20260504011556 | 50 | 0 | 0.0 | 0.0 | 0.00 | 0.00 | 0.00 | 51 | 1009.9 |
| 20260504004612 | 54 | 0 | 0.0 | 1.0 | 0.00 | 0.00 | 0.00 | 42 | 1009.5 |
| 20260504003059 | 55 | 0 | 0.0 | 1.0 | 0.00 | 0.00 | 0.00 | 37 | 1009.3 |
| 20260504001602 | 56 | 0 | 1.0 | 4.0 | 0.00 | 0.00 | 0.00 | 34 | 1009.1 |
| 20260503234558 | 58 | 149 | 3.0 | 11.0 | 0.00 | 0.00 | 0.00 | 32 | 1008.6 |
| 20260503233100 | 58 | 129 | 4.0 | 11.0 | 0.00 | 0.00 | 0.00 | 31 | 1008.6 |
| 20260503231604 | 58 | 147 | 2.0 | 10.0 | 0.00 | 0.00 | 0.00 | 31 | 1008.4 |
| 20260503230113 | 59 | 111 | 4.0 | 11.0 | 0.00 | 0.00 | 0.00 | 30 | 1008.4 |
| 20260503224604 | 59 | 119 | 6.0 | 16.0 | 0.00 | 0.00 | 0.00 | 29 | 1008.3 |
| 20260503223056 | 60 | 137 | 5.0 | 12.0 | 0.00 | 0.00 | 0.00 | 30 | 1008.1 |
| 20260503221601 | 60 | 127 | 6.0 | 14.0 | 0.00 | 0.00 | 0.00 | 30 | 1008.1 |
| 20260503220058 | 59 | 165 | 6.0 | 15.0 | 0.00 | 0.00 | 0.00 | 30 | 1008.0 |
| 20260503214558 | 59 | 136 | 6.0 | 14.0 | 0.00 | 0.00 | 0.00 | 31 | 1008.0 |
| 20260503213103 | 59 | 143 | 7.0 | 16.0 | 0.00 | 0.00 | 0.00 | 31 | 1007.8 |
| 20260503211614 | 59 | 169 | 7.0 | 15.0 | 0.00 | 0.00 | 0.00 | 31 | 1007.8 |
| 20260503210101 | 58 | 152 | 9.0 | 21.0 | 0.00 | 0.00 | 0.00 | 32 | 1007.9 |
| 20260503204600 | 58 | 127 | 9.0 | 19.0 | 0.00 | 0.00 | 0.00 | 33 | 1007.9 |
| 20260503203106 | 58 | 131 | 5.0 | 19.0 | 0.00 | 0.00 | 0.00 | 35 | 1007.7 |
| 20260503201601 | 59 | 160 | 5.0 | 14.0 | 0.00 | 0.00 | 0.00 | 35 | 1007.8 |
| 20260503200118 | 57 | 126 | 7.0 | 14.0 | 0.00 | 0.00 | 0.00 | 36 | 1007.9 |
| 20260503194606 | 56 | 158 | 8.0 | 18.0 | 0.00 | 0.00 | 0.00 | 37 | 1008.1 |